Weather in Tuma

Russia / Ryazan Oblast     55°08′50″N   40°33′19″E
temp.,
°C
wind,
m/s
gust,
m/s
humid.,
%
clouds,
%
prec.,
mm/h
press.,
hPa
HPBL,
m
31 july, sat
sat3100:00+17sw259821 0.0 1004126
03:00+16wsw279811 0.0 1004148
06:00+17wsw299443 0.0 1004262
09:00+23w595759 0.0 10051079
12:00+27w610360 0.0 10052438
15:00+25wsw594594 0.0 10051146
18:00+26wsw594780 0.0 10061512
21:00+20wsw3668100 0.0 1008104
1 august, sun
sun100:00+17wsw246893 0.0 100967
03:00+15wsw247334 0.0 101074
06:00+16wsw257549 0.0 1012121
09:00+23sw35495 0.0 1012618
12:00+28wsw463727 0.0 10121605
15:00+30sw4734100 0.0 10112321
18:00+26s3653100 0.1 1009180
21:00+21nnw367555 0.1 1011135
2 august, mon
mon200:00+20se227872 0.0 101052
03:00+18n11875 0.0 101011
06:00+19s238064 0.1 101072
09:00+27s364741 0.1 1009562
12:00+27ssw374887 0.0 1009523
15:00+31ssw69359 0.0 10061836
18:00+28sse5846100 0.0 1005413
21:00+22sse4126924 0.1 1005270
3 august, tue
tue300:00+19s51489100 1.1 1005383
03:00+19ssw61492100 1.8 1006791
06:00+18ssw4109168 0.0 1005444
09:00+20wsw3683100 0.0 1006576
12:00+22w567099 0.1 1007956
15:00+23wsw355666 0.1 10071382
18:00+21wnw4561100 0.1 1008785
21:00+16w23835 0.1 101041
4 august, wed
wed400:00+14wnw25935 0.0 1011102
03:00+13wnw25955 0.0 1011104
06:00+15w25874 0.0 1012137
09:00+21wnw34550 0.0 1013727
12:00+25wnw553987 0.0 10142410
15:00+25wnw3436100 0.0 10142522
18:00+22w135165 0.0 1014137
21:00+19n226096 0.0 101543